www.pogodaiklimat.ru

АРХИВ ПОГОДЫ в Сан-Франциско

Время (UTC), дата Ветер
(напр.,м/с)
 
Видим.   Явления Облачность Т
(С)
Тd
(С)
f
(%)
Тe
(С)
Тes
(С)
Комфортность

P
(гПа)

Po
(гПа)
Тmin
(С)
Tmax
(С)
R
(мм)
SD
(см)
15:56 16.06 В  16 км    8/5 540 м
[средняя] 
+16.7  +7.8  56  +16  +17    1018.9  1018.5         
16:56 16.06 СВ  16 км    8/5 540 м
[средняя] 
+18.3  +7.8  50  +19  +20    1019.1  1018.8         
17:56 16.06 СВ  16 км    5/2 540 м
[средняя] 
+18.3  +9.4  56  +18  +22    1019.1  1018.5  +14.4  +18.9     
18:56 16.06 СВ  16 км    8/5 540 м
[средняя] 
+19.4  +9.4  52  +20  +23    1019.0  1018.5         
19:56 16.06 СВ  16 км    5/5 540 м
[средняя] 
+20.6  +10.6  53  +22  +29  комфорт  1018.9  1018.5         
20:56 16.06 С  16 км    5/5 630 м
[средняя] 
+21.7  +10.6  49  +23  +30  комфорт  1018.6  1018.1         
21:56 16.06 СЗ  16 км    5/5 630 м
[средняя] 
+21.7  +10.6  49  +23  +25  комфорт  1018.3  1017.8         
22:56 16.06 З  7
{10} 
16 км    5/2 1140 м
[средняя] 
+21.7  +10.0  47  +23  +25  комфорт  1018.2  1017.8         
23:56 16.06 ЮЗ  16 км    8/2 1140 м
[средняя] 
+22.2  +9.4  44  +24  +27  комфорт  1017.6  1017.1  +18.3  +23.3     
00:56 17.06 З   10  16 км    8/2 1140 м
[средняя] 
+21.1  +10.0  49  +23  +23  комфорт  1017.3  1016.8         
01:56 17.06 З  16 км    5/2 1140 м
[средняя] 
+19.4  +10.0  55  +20  +20    1017.3  1016.8         
02:56 17.06 З  16 км    5/2 1140 м
[средняя] 
+18.3  +10.0  58  +18  +19    1017.7  1017.1         
03:56 17.06 ЮЗ  16 км    5/2 690 м
[средняя] 
+17.2  +11.7  70  +16  +16    1017.9  1017.5         
04:56 17.06 Ю  16 км    2/2 600 м
[средняя] 
+17.2  +12.2  72  +17  +17    1018.0  1017.5         
05:56 17.06 ЮЗ  16 км    2/2 540 м
[средняя] 
+17.2  +12.2  72  +17  +17    1018.2  1017.8  +16.7  +22.2     
06:45 17.06 ЮЗ  16 км    8/8 540 м  +17.2  +12.2  72  +17  +17      1017.8         
06:56 17.06 ЮЗ  16 км    8/8 540 м  +16.7  +12.2  75  +16  +16    1018.3  1017.8         
07:32 17.06 ЮВ  16 км    5/5 510 м  +16.7  +12.8  78  +16  +16      1017.5         
07:50 17.06 Ю  16 км    8/8 510 м
[средняя] 
+17.0  +13.0  77  +17  +17      1017.5         
07:56 17.06 Ю  16 км    8/8 510 м
[средняя] 
+16.7  +12.8  78  +16  +16    1017.8  1017.5         
08:14 17.06 Ю  16 км    8/2 510 м
[средняя] 
+16.7  +12.2  75  +16  +16      1017.1         
08:56 17.06 нст  16 км    8/2 510 м
[средняя] 
+16.7  +12.2  75  +17  +17    1017.2  1016.8         
09:56 17.06 Ю  16 км    8/2 510 м
[средняя] 
+16.7  +11.7  72  +16  +16    1016.8  1016.5         
10:40 17.06 Ю  16 км    8/8 510 м
[средняя] 
+16.1  +11.7  75  +16  +16      1016.1         
10:56 17.06 Ю  16 км    8/8 510 м
[средняя] 
+16.7  +11.7  72  +17  +17    1016.6  1016.1         
11:13 17.06 Ю  16 км    8/5 510 м
[средняя] 
+16.7  +11.7  72  +16  +16      1016.5         
11:56 17.06 ЮВ  16 км    8/5 510 м
[средняя] 
+16.7  +11.7  72  +16  +16    1016.7  1016.5  +16.1  +17.2     
12:56 17.06 ЮВ  16 км    8/8 510 м  +17.2  +11.7  70  +17  +17    1017.1  1016.8         
13:56 17.06 ЮВ  16 км    8/8 600 м  +17.2  +11.7  70  +17  +17    1017.4  1017.1         
14:56 17.06 В  16 км    8/8 690 м  +17.8  +11.7  67  +18  +18    1017.8  1017.5         
15:56 17.06 В  16 км    8/5 690 м
[средняя] 
+18.9  +12.8  68  +20  +20    1017.9  1017.5         
16:56 17.06 В  16 км    8/8 900 м
[средняя] 
+20.0  +13.3  65  +22  +23  комфорт  1017.9  1017.5         
17:56 17.06 ЮЗ  16 км    8/8 990 м
[средняя] 
+21.7  +12.8  57  +24  +26  комфорт  1018.2  1017.8  +16.7  +22.2     
18:56 17.06 ЮЗ  16 км    8/2 1050 м
[средняя] 
+21.7  +12.8  57  +24  +26  комфорт  1018.5  1018.1         
19:56 17.06 ЮЗ  16 км    8/8 1230 м
[средняя] 
+20.6  +12.8  61  +22  +23  комфорт  1019.0  1018.5         
20:31 17.06 ЮЗ  16 км    10/8 720 м
[средняя] 
+20.0  +13.3  65  +22  +22  комфорт    1018.5         
20:56 17.06 ЮЗ  16 км    8/8 660 м
[средняя] 
+20.0  +13.3  65  +21  +22  комфорт  1019.1  1018.8         
21:56 17.06 ЮЗ  16 км    10/8 0 м
[средняя] 
+18.9  +13.3  70  +19  +19    1018.8  1018.5         
22:56 17.06 ЮЗ  16 км    10/5 0 м
[средняя] 
+18.3  +13.3  73  +18  +19    1018.5  1018.1         
23:39 17.06 нст  16 км    8/8 210 м
[средняя] 
+18.3  +12.8  70  +19  +21      1017.8         
23:56 17.06 СЗ  7
{9} 
16 км    8/8 180 м
[средняя] 
+17.2  +12.8  75  +16  +16    1018.0  1017.5  +17.2  +22.2     
00:08 18.06 СЗ  16 км    8/8 180 м
[средняя] 
+17.2  +12.8  75  +16  +16      1017.5         
00:56 18.06 СЗ  16 км    8/5 210 м
[средняя] 
+17.2  +12.8  75  +16  +16    1017.8  1017.5         
01:56 18.06 СЗ  16 км    8/2 150 м
[средняя] 
+16.1  +12.2  78  +15  +16    1018.1  1017.8         
02:56 18.06 З  16 км    8/5 210 м
[средняя] 
+15.6  +11.7  78  +14  +14    1018.4  1018.1         
03:56 18.06 З   16 км    8/2 210 м
[средняя] 
+15.6  +11.7  78  +14  +14    1018.5  1018.1         
04:56 18.06 З   16 км    8/8 240 м
[средняя] 
+15.6  +11.7  78  +14  +14    1019.0  1018.5         
05:56 18.06 СЗ  16 км    8/8 240 м
[средняя] 
+15.0  +11.7  81  +14  +14    1019.3  1018.8  +15.0  +17.2     

 

Местоположение метеостанции San Francisco International Airport: широта 37.6196 долгота -122.3656 высота над уровнем моря 3 м.

В архиве по умолчанию представлена погода в Сан-Франциско за последние 1-2 суток. Обновление информации о фактической погоде в базе происходит ежечасно! Архивные данные за месяц целиком и за предыдущие месяцы Вы можете получить, выбрав интересующий диапазон дат из раскрывающегося списка и нажав кнопку "Ввод!".

Внимание! Архив погоды МЕТАР в базе сайта в настоящее время начинается c 1 января 2013 г. Нет смысла пытаться выбрать более раннюю дату.

Внимание! Время в таблицах - всемирное. Для получения местного времени необходимо прибавить поправку, которая в Сан-Франциско равна -8 ч.

Ветер - указаны скорость ветра в м/с и направление, откуда дует ветер: С - северный, СВ - северо-восточный, В - восточный, ЮВ - юго-восточный, Ю - южный, ЮЗ - юго-западный, З - западный, СЗ - северо-западный.
Видимость - горизонтальная дальность видимости в метрах или километрах. При видимости от 1 до 10 км при отсутствии осадков обычно наблюдается дымка, при ухудшении видимости до 1 км и менее - туман. В сухую погоду видимость может ухудшаться дымом, пылью или мглою.
Атмосферные явления - указаны явления, наблюдавшиеся в указанный момент времени.
Облачность - указаны через наклонную черту верхняя и нижняя облачность в баллах и высота нижней границы облаков в метрах. Внимание: облачность, как и прочие метеорологические величины в США измеряются автоматическими метеостанциями. Указанные значения в баллах носят условный характер и показывают процент времени, в течение которого, в среднем, лазерный луч высотомера отражался от облаков обратно.
T - Температура воздуха - температура, измеренная на высоте 2 м над землей.
Td - Температура точки росы - температура, при понижении до которой содержащийся в воздухе водяной пар достигнет насыщения.
f - Относительная влажность воздуха - влажноcть воздуха, измеренная на высоте 2 м над землей.
Te - Эффективная температура - температура, которую ощущает одетый по сезону человек в тени. Характеристика душности погоды. При расчете учитывается влияние влажности воздуха и скорости ветра на теплоощущения человека.
Tes - Эффективная температура на солнце - температура, которую ощущает человек, с поправкой на солнечный нагрев. Характеристика знойности погоды. Зависит от высоты солнца над горизонтом, облачности и скорости ветра. Ночью, в пасмурную погоду, а также при ветре 12 м/с и более поправка равна нулю.
P - Атмосферное давление - приведенное к уровню моря атмосферное давление.
Po - Атмосферное давление - измеренное на уровне метеостанции атмосферное давление.
Tmin - Минимальная температура - минимум температуры воздуха на высоте 2 м над землей.
Tmax - Максимальная температура - максимум температуры воздуха на высоте 2 м над землей.
R - Количество осадков - Количество выпавших осадков за 3 или 6 часов, мм.
SD - Снежный покров - Высота снежного покрова, см.